This is the latest recevied weather packets stored in our database for station/object G6FCI. If no packets are shown the sender has not sent any weather packets the latest 10 day(s).
| Time | Temp. | Humidity | Pressure | Rain* | Wind** | Luminosity | Snow |
|---|---|---|---|---|---|---|---|
| 1776981243 | 10.56° C | 86% | 1028.7 hPa | 0 mm | - | - | - |
| 1776980703 | 10.56° C | 86% | 1028.7 hPa | 0 mm | - | - | - |
| 1776977643 | 11.11° C | 83% | 1028.5 hPa | 0 mm | - | - | - |
| 1776975483 | 12.78° C | 77% | 1028.5 hPa | 0 mm | - | - | - |
| 1776972423 | 14.44° C | 70% | 1028.1 hPa | 0 mm | - | - | - |
| 1776971883 | 14.44° C | 64% | 1028 hPa | 0 mm | - | - | - |
| 1776969924 | 15.56° C | 66% | 1027.9 hPa | 0 mm | - | - | - |
| 1776966303 | 18.33° C | 57% | 1028.1 hPa | 0 mm | - | - | - |
| 1776965763 | 18.33° C | 57% | 1028 hPa | 0 mm | - | - | - |
| 1776965223 | 18.33° C | 57% | 1028 hPa | 0 mm | - | - | - |
| 1776962184 | 19.44° C | 56% | 1028.5 hPa | 0 mm | - | - | - |
| 1776957483 | 21.11° C | 55% | 1028.9 hPa | 0 mm | - | - | - |
| 1776954984 | 20° C | 58% | 1029.4 hPa | 0 mm | - | - | - |
| 1776954423 | 19.44° C | 64% | 1029.6 hPa | 0 mm | - | - | - |
| 1776952803 | 18.89° C | 69% | 1029.8 hPa | 0 mm | - | - | - |
| 1776951363 | 17.78° C | 74% | 1030.2 hPa | 0 mm | - | - | - |
| 1776950283 | 17.78° C | 78% | 1030.3 hPa | 0 mm | - | - | - |
| 1776948843 | 16.11° C | 81% | 1030.6 hPa | 0 mm | - | - | - |
| 1776947763 | 16.11° C | 82% | 1030.8 hPa | 0 mm | - | - | - |
| 1776947244 | 15.56° C | 81% | 1030.9 hPa | 0 mm | - | - | - |
| 1776946143 | 16.11° C | 82% | 1031 hPa | 0 mm | - | - | - |
| 1776942543 | 14.44° C | 84% | 1031.5 hPa | 0 mm | - | - | - |
| 1776942003 | 14.44° C | 84% | 1031.5 hPa | 0 mm | - | - | - |
| 1776935883 | 11.67° C | 73% | 1031.7 hPa | 0 mm | - | - | - |
| 1776933363 | 10° C | 70% | 1031.8 hPa | 0 mm | - | - | - |
* Rain latest hour (hover to see other rain measurements)
** Current wind speed in m/s (hover to see current wind gust speed)